Flag for Israel Weather past 2 weeks in Tel Aviv, Israel

Now
64 °F

Scattered clouds.


Feels Like: 64 °F
Forecast: 56 / 65 °F
Wind: 10 mph from Northwest

Location: Ben Gurion International Airport

Current Time: Mar 1, 2015 at 1:51:26 PM

Latest Report: Mar 1, 2015 at 1:20 PM


Visibility: N/A

Pressure: 30.07 "Hg

Humidity: 56%

Dew point: 48 °F

Location of Tel AvivLocation

Historic Weather in Tel Aviv — Graph

°F

Tel Aviv temperature yesterday

Maximum temperature yesterday: 66 °F (at 10:20 AM)
Minimum temperature yesterday: 54 °F (at 11:20 PM)
Average temperature yesterday: 61 °F

Past Weeks' High & Low Weather Summary

 TemperatureHumidityPressure
High86 °F (Feb 27, 1:50 PM)94% (Feb 15, 9:50 PM)30.21 "Hg (Feb 15, 9:50 PM)
Low41 °F (Feb 19, 11:20 PM)19% (Feb 27, 11:50 AM)29.71 "Hg (Feb 20, 4:50 AM)
Average57 °F67%30.01 "Hg
* Reported Feb 14 12:20 PM — Mar 1 12:20 PM, Tel Aviv, Weather by CustomWeather, © 2015

Note: Actual official high and low records may vary slightly from our data, if they occured in-between our weather recording intervals... More about our weather records

Advertising

Tel Aviv weather history for previous 24 hours

 ConditionsComfort  
Time TempWeatherWind HumidityBarometerVisibility
12:20 PM
Sun, Mar 1
64 °FScattered clouds.10 mph56%30.09 "HgN/A
11:50 AM64 °FScattered clouds.9 mph56%30.09 "HgN/A
11:20 AM68 °FScattered clouds.2 mph43%30.12 "HgN/A
10:50 AM68 °FScattered clouds.2 mph46%30.12 "HgN/A
10:20 AM64 °FScattered clouds.2 mph52%30.12 "HgN/A
9:50 AM64 °FScattered clouds.3 mph52%30.12 "HgN/A
9:20 AM63 °FPassing clouds.2 mph59%30.12 "HgN/A
8:50 AM61 °FSunny.2 mph63%30.15 "Hg10 mi
8:20 AM57 °FPassing clouds.3 mph67%30.12 "HgN/A
7:50 AM54 °FScattered clouds.2 mph77%30.15 "HgN/A
7:20 AM52 °FScattered clouds.3 mph82%30.15 "HgN/A
6:50 AM52 °FScattered clouds.5 mph77%30.12 "HgN/A
6:20 AM52 °FPartly sunny.2 mph82%30.12 "HgN/A
5:50 AM52 °FPassing clouds.5 mph77%30.12 "HgN/A
5:20 AM52 °FPassing clouds.3 mph82%30.09 "HgN/A
4:50 AM52 °FPassing clouds.3 mph82%30.09 "HgN/A
4:20 AM52 °FClear.3 mph82%30.09 "Hg10 mi
3:50 AM52 °FClear.5 mph82%30.09 "Hg10 mi
3:20 AM52 °FPassing clouds.5 mph82%30.09 "HgN/A
2:50 AM54 °FPassing clouds.5 mph77%30.09 "HgN/A
2:20 AM54 °FPassing clouds.3 mph77%30.09 "HgN/A
1:50 AM54 °FPassing clouds.5 mph77%30.12 "HgN/A
1:20 AM54 °FPassing clouds.5 mph82%30.12 "HgN/A
12:50 AM54 °FPassing clouds.2 mph82%30.12 "HgN/A
12:20 AM54 °FPassing clouds.5 mph82%30.12 "HgN/A
11:50 PM
Sat, Feb 28
54 °FPassing clouds.1 mph82%30.12 "HgN/A
11:20 PM54 °FPassing clouds.5 mph82%30.12 "HgN/A
10:50 PM55 °FPassing clouds.2 mph77%30.12 "HgN/A
10:20 PM55 °FPassing clouds.3 mph77%30.12 "HgN/A
9:50 PM57 °FPassing clouds.3 mph72%30.12 "HgN/A
9:20 PM57 °FPassing clouds.6 mph72%30.12 "HgN/A
8:50 PM57 °FClear.3 mph72%30.12 "Hg10 mi
8:20 PM57 °FClear.1 mph77%30.12 "Hg10 mi
7:50 PM59 °FPassing clouds.1 mph72%30.12 "HgN/A
7:20 PM59 °FPassing clouds.2 mph72%30.12 "HgN/A
6:50 PM59 °FPassing clouds.2 mph72%30.12 "HgN/A
6:20 PM61 °FClear.5 mph63%30.09 "Hg10 mi
5:50 PM61 °FClear.7 mph68%30.09 "Hg10 mi
5:20 PM63 °FSunny.7 mph59%30.09 "Hg10 mi
4:50 PM64 °FPassing clouds.9 mph56%30.09 "HgN/A
4:20 PM64 °FPassing clouds.9 mph56%30.09 "HgN/A
3:50 PM66 °FPassing clouds.10 mph52%30.09 "HgN/A
3:20 PM66 °FPassing clouds.12 mph52%30.09 "HgN/A
2:50 PM66 °FScattered clouds.8 mph52%30.09 "HgN/A
2:20 PM66 °FScattered clouds.12 mph52%30.09 "HgN/A
1:50 PM64 °FScattered clouds.13 mph60%30.09 "HgN/A
1:20 PM64 °FScattered clouds.10 mph60%30.09 "HgN/A
Weather by CustomWeather, © 2015

See weather overviewHow to use our weather pages